Waarnemingen

Advertentie
Mijn weer
Javea, Spanje (8370): temperatuur & dauwpunt: 11.07.2019 19:00:00 - 17.07.2019 19:00:00 (CEST)Javea, Spanje (8370): windsnelheid & windstoten: 11.07.2019 19:00:00 - 17.07.2019 19:00:00 (CEST)Javea, Spanje (8370): windrichting: 11.07.2019 19:00:00 - 17.07.2019 19:00:00 (CEST)Javea, Spanje (8370): luchtdruk: 11.07.2019 19:00:00 - 17.07.2019 19:00:00 (CEST)Javea, Spanje (8370): zicht: 11.07.2019 19:00:00 - 17.07.2019 19:00:00 (CEST)Javea, Spanje (8370): Zonneschijnduur: 11.07.2019 19:00:00 - 17.07.2019 19:00:00 (CEST)Javea, Spanje (8370): neerslag: 11.07.2019 19:00:00 - 17.07.2019 19:00:00 (CEST)
Datum & Tijd tt [°C] td [°C] ff [km/u] ff [kn] fx [km/u] fx [kn] dd ppp [hPa] vv [km] sd [min] rr [mm]
17.07.2019 19:00:00 - - - - - - - - - - -
17.07.2019 18:00:00 31,0 15,0 11 6 29 16 ZO 1013,0 20 60 0,0
17.07.2019 17:00:00 31,5 14,1 15 8 30 16 ZZO 1013,1 20 60 0,0
17.07.2019 16:00:00 31,6 15,2 15 8 28 15 ZZO 1013,9 19 60 0,0
17.07.2019 15:00:00 29,9 15,3 12 7 27 14 O 1014,5 20 57 0,0
17.07.2019 14:00:00 29,1 17,9 8 5 19 10 O 1015,0 20 60 -
17.07.2019 13:00:00 29,2 18,9 10 5 18 10 NO 1015,3 20 60 0,0
17.07.2019 12:00:00 29,0 17,9 8 4 19 10 ONO 1015,4 17 60 0,0
17.07.2019 11:00:00 28,3 19,3 10 6 17 9 ONO 1015,3 20 56 0,0
17.07.2019 10:00:00 27,4 19,7 8 4 - - NNO 1015,4 20 - -
17.07.2019 09:00:00 24,1 17,9 6 3 11 6 WZW 1015,1 20 54 0,0
17.07.2019 08:00:00 20,3 16,9 8 5 11 6 ZW 1015,1 20 15 -
17.07.2019 07:00:00 20,0 15,6 5 3 11 6 WZW 1014,9 20 0 0,0
17.07.2019 06:00:00 20,0 17,4 3 2 9 5 ZW 1014,6 20 0 0,0
17.07.2019 05:00:00 20,7 18,1 6 3 11 6 WZW 1014,5 20 0 0,0
17.07.2019 04:00:00 21,4 18,8 5 3 10 5 WZW 1014,5 20 0 0,0
17.07.2019 03:00:00 21,6 18,8 6 3 8 4 WZW 1015,0 19 0 0,0
17.07.2019 02:00:00 22,3 18,7 6 3 11 6 ZZW 1015,4 14 0 -
17.07.2019 01:00:00 23,4 19,1 8 4 12 6 WZW 1015,7 16 0 0,0
17.07.2019 00:00:00 23,9 18,8 8 4 13 7 ZW 1015,7 20 0 0,0
16.07.2019 23:00:00 24,9 18,6 6 4 24 13 Z 1015,7 20 0 0,0
16.07.2019 22:00:00 25,3 18,0 9 5 26 14 Z 1015,0 20 2 0,0
16.07.2019 21:00:00 26,7 17,5 14 7 26 14 Z 1015,1 20 60 0,0
16.07.2019 20:00:00 28,4 17,0 14 8 27 15 Z 1015,1 20 60 -
16.07.2019 19:00:00 29,5 17,3 16 9 31 17 ZZO 1014,9 20 60 0,0
16.07.2019 18:00:00 30,5 17,2 14 8 34 18 ZZO 1015,3 20 60 0,0
16.07.2019 17:00:00 30,5 16,9 16 9 35 19 ZZO 1015,8 20 59 0,0
16.07.2019 16:00:00 30,7 17,1 20 11 34 18 ZZO 1015,9 20 60 0,0
16.07.2019 15:00:00 30,9 17,6 16 9 30 16 ZZO 1016,4 20 60 0,0
16.07.2019 14:00:00 31,0 17,0 14 8 29 16 ZZO 1016,6 20 60 -
16.07.2019 13:00:00 30,6 18,3 15 8 26 14 Z 1016,7 20 54 0,0
16.07.2019 12:00:00 29,9 18,7 10 6 20 11 ZZO 1016,7 20 45 0,0
16.07.2019 11:00:00 28,3 20,1 7 4 19 10 ZO 1016,6 20 44 0,0
16.07.2019 10:00:00 28,0 20,5 8 4 14 8 OZO 1016,4 20 20 0,0
16.07.2019 09:00:00 25,7 21,4 2 1 7 4 ZZO 1016,3 20 55 0,0
16.07.2019 08:00:00 22,4 20,7 5 3 8 5 WZW 1015,7 10 11 -
16.07.2019 07:00:00 21,3 19,4 3 2 6 3 WZW 1015,5 7 0 0,0
16.07.2019 06:00:00 23,3 21,2 3 2 10 5 O 1015,2 9 0 0,0
16.07.2019 05:00:00 22,5 20,9 3 2 8 4 O 1015,0 9 0 0,0
16.07.2019 04:00:00 22,1 20,1 2 1 7 4 O 1014,8 5 0 0,0
16.07.2019 03:00:00 22,4 20,1 4 2 10 5 Z 1014,7 8 0 0,0
16.07.2019 02:00:00 23,5 21,2 5 3 8 5 WZW 1014,2 7 0 -
16.07.2019 01:00:00 23,7 20,9 3 2 6 3 ZW 1014,1 9 0 0,0
16.07.2019 00:00:00 24,6 20,9 1 1 5 3 Z 1013,7 11 0 0,0
15.07.2019 23:00:00 25,3 21,0 2 1 9 5 ZO 1013,4 13 0 0,0
15.07.2019 22:00:00 26,2 20,1 6 3 9 5 ZW 1012,5 15 2 0,0
15.07.2019 21:00:00 28,3 20,1 4 2 17 9 ZW 1011,8 18 60 0,0
15.07.2019 20:00:00 30,4 18,5 8 4 16 9 Z 1011,2 20 60 -
15.07.2019 19:00:00 30,9 18,9 9 5 21 12 ZZO 1010,9 17 60 0,0
15.07.2019 18:00:00 31,6 19,3 10 5 21 11 ZO 1010,7 20 60 0,0
15.07.2019 17:00:00 31,3 20,0 10 6 24 13 OZO 1010,6 17 60 0,0
15.07.2019 16:00:00 31,8 19,4 10 5 21 12 O 1010,8 15 60 0,0
15.07.2019 15:00:00 30,9 18,9 11 6 22 12 O 1010,8 10 60 0,0
15.07.2019 14:00:00 29,7 20,5 12 7 22 12 O 1011,3 14 60 -
15.07.2019 13:00:00 29,1 21,3 12 6 21 12 ONO 1011,5 17 60 0,0
15.07.2019 12:00:00 28,8 20,5 12 6 19 10 ONO 1011,5 20 60 0,0
15.07.2019 11:00:00 28,9 19,8 9 5 16 9 ONO 1011,6 17 55 0,0
15.07.2019 10:00:00 28,9 19,8 2 1 8 4 O 1011,7 20 29 0,0
15.07.2019 09:00:00 25,0 19,1 5 3 10 5 WZW 1011,6 20 59 0,0
15.07.2019 08:00:00 21,5 18,3 8 4 10 5 WZW 1011,5 17 10 -
15.07.2019 07:00:00 20,4 17,6 7 4 10 5 WZW 1011,4 16 0 0,0
15.07.2019 06:00:00 20,7 17,9 5 3 - - WZW 1011,2 19 - -
15.07.2019 05:00:00 21,2 18,2 4 2 6 3 W 1011,1 20 0 0,0
15.07.2019 04:00:00 22,6 18,8 3 2 9 5 W 1011,3 20 0 0,0
15.07.2019 03:00:00 23,4 19,1 5 3 9 5 WZW 1011,5 20 0 0,0
15.07.2019 02:00:00 24,3 19,1 3 2 12 7 ZZW 1012,1 20 0 -
15.07.2019 01:00:00 24,5 19,6 5 3 14 8 WZW 1012,3 20 0 0,0
15.07.2019 00:00:00 24,6 19,8 2 1 8 4 Z 1012,5 20 0 0,0
14.07.2019 23:00:00 25,1 19,9 4 2 9 5 ZZW 1012,5 20 0 0,0
14.07.2019 22:00:00 26,0 20,1 3 2 14 7 ZW 1012,2 20 0 0,0
14.07.2019 21:00:00 27,6 19,6 6 3 14 8 ZO 1011,9 20 42 0,0
14.07.2019 20:00:00 28,3 20,6 8 4 16 9 ONO 1011,8 20 60 -
14.07.2019 19:00:00 28,6 20,1 8 5 21 11 O 1011,4 20 60 0,0
14.07.2019 18:00:00 29,3 20,5 8 4 20 11 O 1011,5 20 60 0,0
14.07.2019 17:00:00 29,3 20,7 11 6 21 12 ONO 1011,3 20 60 0,0
14.07.2019 16:00:00 29,7 21,1 10 5 21 12 O 1011,4 20 60 0,0
14.07.2019 15:00:00 30,9 18,9 10 6 25 14 NO 1011,3 20 60 0,0
14.07.2019 14:00:00 30,6 18,3 16 8 30 16 NNO 1011,5 20 60 -
14.07.2019 13:00:00 30,6 19,0 17 9 31 17 N 1011,6 20 60 0,0
14.07.2019 12:00:00 29,8 19,2 19 10 33 18 N 1011,4 20 60 0,0
14.07.2019 11:00:00 29,4 19,1 13 7 27 15 NNW 1011,0 20 53 0,0
14.07.2019 10:00:00 27,5 20,3 12 7 25 13 NNW 1010,9 20 29 0,0
14.07.2019 09:00:00 26,7 21,3 8 5 22 12 NW 1010,5 20 54 0,0
14.07.2019 08:00:00 24,1 20,1 5 3 13 7 ZW 1010,4 20 21 -
14.07.2019 07:00:00 23,8 20,5 3 2 18 10 WNW 1010,1 20 0 0,0
14.07.2019 06:00:00 24,3 21,3 9 5 26 14 NNW 1009,9 20 0 0,0
14.07.2019 05:00:00 24,6 21,5 6 4 23 12 NW 1010,2 20 0 0,0
14.07.2019 04:00:00 24,8 21,3 11 6 28 15 NNW 1010,8 20 0 0,0
14.07.2019 03:00:00 24,6 20,9 6 4 13 7 WNW 1010,8 20 0 0,0
14.07.2019 02:00:00 24,8 20,7 4 2 11 6 ZW 1011,6 20 0 -
14.07.2019 01:00:00 25,2 21,1 3 2 10 6 W 1012,3 20 0 0,0
14.07.2019 00:00:00 25,6 21,3 4 2 14 8 OZO 1012,4 20 0 0,0
13.07.2019 23:00:00 26,0 20,5 6 4 18 10 OZO 1012,4 20 0 0,0
13.07.2019 22:00:00 26,0 21,0 4 2 13 7 OZO 1012,2 20 0 0,0
13.07.2019 21:00:00 26,8 21,3 5 3 14 8 O 1012,0 20 17 0,0
13.07.2019 20:00:00 27,7 20,8 8 4 20 11 ONO 1012,2 20 40 -
13.07.2019 19:00:00 27,9 21,2 11 6 22 12 NO 1012,4 20 60 0,0
13.07.2019 18:00:00 28,3 22,1 12 7 22 12 ONO 1012,9 20 60 0,0
13.07.2019 17:00:00 29,7 21,1 14 8 25 14 ONO 1013,4 20 60 0,0
13.07.2019 16:00:00 32,5 19,4 13 7 26 14 OZO 1013,5 20 60 0,0
13.07.2019 15:00:00 33,6 18,2 9 5 25 13 ZO 1014,2 20 39 0,0
13.07.2019 14:00:00 31,8 18,0 10 5 27 15 ZZO 1015,1 20 40 -
13.07.2019 13:00:00 32,3 17,8 9 5 19 10 O 1014,7 20 60 0,0
13.07.2019 12:00:00 31,0 16,2 6 4 20 11 O 1014,6 20 53 0,0
13.07.2019 11:00:00 29,8 19,2 8 5 21 12 ONO 1014,7 20 51 0,0
13.07.2019 10:00:00 28,6 18,1 10 5 24 13 N 1014,6 20 17 0,0
13.07.2019 09:00:00 26,4 16,3 8 4 14 8 NNO 1014,9 20 6 0,0
13.07.2019 08:00:00 24,3 16,8 8 4 16 9 ZW 1015,0 20 0 -
13.07.2019 07:00:00 23,2 14,5 6 4 10 5 O 1013,4 20 0 0,0
13.07.2019 06:00:00 24,0 13,6 5 3 9 5 N 1014,2 20 0 0,0
13.07.2019 05:00:00 24,5 13,1 3 1 10 6 ZZW 1014,6 20 0 0,0
13.07.2019 04:00:00 24,6 11,6 4 2 14 7 ZO 1014,2 20 0 0,0
13.07.2019 03:00:00 23,9 11,9 8 4 12 6 WZW 1014,6 20 0 0,0
13.07.2019 02:00:00 24,5 10,8 5 3 18 10 WZW 1014,3 20 0 -
13.07.2019 01:00:00 23,7 11,7 7 4 11 6 WZW 1014,1 20 0 0,0
13.07.2019 00:00:00 25,8 13,0 5 3 13 7 WZW 1014,4 20 0 0,0
12.07.2019 23:00:00 27,2 10,9 8 5 19 10 ZW 1014,8 20 0 0,0
12.07.2019 22:00:00 27,2 12,0 7 4 21 12 ZW 1014,1 20 0 0,0
12.07.2019 21:00:00 27,2 16,8 10 6 25 13 WZW 1014,2 20 0 0,0
12.07.2019 20:00:00 29,0 16,2 10 5 29 16 ZW 1014,0 20 57 -
12.07.2019 19:00:00 30,8 15,3 15 8 26 14 ZZW 1014,2 20 60 0,0
12.07.2019 18:00:00 32,6 11,7 16 9 25 14 Z 1014,4 20 60 0,0
12.07.2019 17:00:00 34,2 11,3 13 7 27 14 ZZO 1014,5 20 60 0,0
12.07.2019 16:00:00 34,6 12,3 12 6 26 14 ZO 1014,6 20 60 0,0
12.07.2019 15:00:00 35,4 13,0 11 6 23 12 ZZO 1015,2 20 60 0,0
12.07.2019 14:00:00 34,6 14,5 12 7 22 12 ZZO 1015,8 20 60 -
12.07.2019 13:00:00 32,1 19,1 9 5 20 11 O 1016,2 20 60 0,0
12.07.2019 12:00:00 31,6 16,4 10 6 23 12 O 1016,3 20 60 0,0
12.07.2019 11:00:00 31,2 15,2 6 4 16 9 ONO 1016,4 20 60 0,0
12.07.2019 10:00:00 29,3 9,9 8 4 16 8 ZZW 1016,4 20 60 0,0
12.07.2019 09:00:00 24,9 14,0 5 3 13 7 ZW 1016,0 20 60 0,0
12.07.2019 08:00:00 20,9 12,5 9 5 12 6 WZW 1015,7 20 0 -
12.07.2019 07:00:00 19,3 12,1 8 4 14 8 WZW 1015,1 20 0 0,0
12.07.2019 06:00:00 19,9 12,1 8 4 13 7 WZW 1014,9 20 0 0,0
12.07.2019 05:00:00 21,3 13,0 6 4 11 6 ZW 1014,4 20 0 0,0
12.07.2019 04:00:00 23,3 12,6 5 3 11 6 WZW 1014,3 20 0 0,0
12.07.2019 03:00:00 23,9 12,8 7 4 14 7 ZW 1014,8 20 0 0,0
12.07.2019 02:00:00 24,2 14,3 5 3 13 7 ZZW 1015,1 20 0 -
12.07.2019 01:00:00 24,7 15,6 7 4 16 9 W 1015,3 20 0 0,0
12.07.2019 00:00:00 25,0 16,4 8 4 16 8 WZW 1015,0 20 0 0,0
11.07.2019 23:00:00 25,2 16,9 7 4 15 8 WZW 1014,8 20 0 0,0
11.07.2019 22:00:00 25,6 17,8 7 4 21 12 WZW 1014,3 20 0 0,0
11.07.2019 21:00:00 27,1 17,3 9 5 32 17 ZW 1013,8 20 54 0,0
11.07.2019 20:00:00 28,6 16,5 15 8 35 19 ZZW 1013,8 20 60 -
11.07.2019 19:00:00 29,8 17,0 16 9 37 20 ZZW 1013,9 20 60 0,0

tt = temperatuur
td = dauwpunt
ff = windsnelheid
fx = windstoten
dd = windrichting
ppp = luchtdruk
vv = zicht
sd = Zonneschijnduur
rr = neerslag

Weerstations in de omgeving